Regional Weather Roundup
Issued by NWS

Home | Current Version | Previous Version | Text Only | Print | Product List | Glossary Off
Versions: 1 2 3 4 5 6 7 8 9 10 11 12 13 14 15 16 17 18 19 20 21 22 23 24 25 26 27 28 29 30 31 32 33 34 35 36 37 38 39 40 41 42 43 44 45 46 47 48 49 50

488
ASUS45 KBOU 160207
RWRCO

WEATHER ROUNDUP FOR COLORADO
NATIONAL WEATHER SERVICE DENVER/BOULDER CO
800 PM MDT TUE AUG 15 2017

NOTE: "FAIR" INDICATES FEW OR NO CLOUDS BELOW 12000 FEET WITH NO
SIGNIFICANT WEATHER AND/OR OBSTRUCTIONS TO VISIBILITY.

COZ001>005-013-030-031-160300-
...NORTHWEST COLORADO...

CITY           SKY/WX    TMP DP  RH WIND       PRES   REMARKS
CRAIG          CLOUDY    54  48  80 SE3       30.13F
HAYDEN         CLOUDY    54  48  82 W8        30.18S
MEEKER         CLOUDY    56  48  74 NE8       30.14R
RABBIT EARS PA LGT RAIN  41  41 100 W13G22    30.31S VSB 1
STEAMBOAT SPGS CLOUDY    52  48  87 SW7       30.18R
WALDEN         FAIR      46  41  81 N9        30.21R
$$

COZ006>008-011-160300-
...WEST CENTRAL VALLEYS...

CITY           SKY/WX    TMP DP  RH WIND       PRES   REMARKS
GRAND JUNCTION MOCLDY    74  37  26 E3        29.95R
MONTROSE       MOCLDY    72  28  19 SW8       30.04R
EAGLE          FAIR      69  30  23 W15       30.09R
RIFLE          CLOUDY    70  43  37 N15G22    30.02R
DELTA          NOT AVBL
NUCLA          NOT AVBL
$$

COZ017>023-064>068-160300-
...SOUTHWEST COLORADO...

CITY           SKY/WX    TMP DP  RH WIND       PRES   REMARKS
DURANGO        FAIR      68  26  20 W8        30.10S
CORTEZ         CLOUDY    71  31  22 W6        30.07R
PAGOSA SPRINGS FAIR      65  23  19 W5        30.17S
TELLURIDE      NOT AVBL
WOLF CREEK PAS FAIR      41  28  60 SW8       30.47R
$$

COZ009-010-012-014-032>034-037-058>063-160300-
...CENTRAL COLORADO...

CITY           SKY/WX    TMP DP  RH WIND       PRES   REMARKS
ASPEN          FAIR      65  25  22 N13       30.14R
BUENA VISTA    FAIR      65  23  20 W14G20    30.13R
COPPER MTN     MOCLDY    46  23  39 W16       30.40S
BERTHOUD PASS  CLOUDY    37  34  87 NW22      30.41S
COTTONWOOD PAS FAIR      59  21  23 W9G24     30.26S
GUNNISON       FAIR      62  33  33 NW7       30.16R
KREMMLING      FAIR      63  43  48 N15G23    30.16R
LEADVILLE      CLOUDY    53  21  28 NW12G22   30.25R
MONARCH PASS   FAIR      45  27  49 W29G35    30.51R
SALIDA         FAIR      67  28  23 W21G28    30.17R
SUNLIGHT       CLOUDY    45  30  57 SW12G26   30.37R
WILKERSON PASS FAIR      50  23  34 W8        30.36R
$$

COZ069>075-160300-
...SAN LUIS VALLEY/SANGRE DE CRISTO MOUNTAINS...

CITY           SKY/WX    TMP DP  RH WIND       PRES   REMARKS
ALAMOSA        FAIR      66  38  35 SW6       30.09R
DEL NORTE      FAIR      63  34  34 W10       30.14R
LA VETA PASS   NOT AVBL
SAGUACHE       FAIR      61  32  33 NW24G30   30.14R
$$

COZ035-036-038>040-160300-
...NORTHERN COLORADO FRONT RANGE...

CITY           SKY/WX    TMP DP  RH WIND       PRES   REMARKS
DENVER INTL AP TSTM      66  50  55 N30G51    29.99R
DMNS CITY PARK   N/A     66  47  49 N23G29    29.98R
AURORA         MOCLDY    70  51  52 N25G36    30.00R
FRONT RANGE AP CLOUDY    70  54  56 N33G44    30.03R
ERIE MUNI ARPT CLOUDY    60  54  82 N17G26    30.03R
BOULDER MUN AP LGT RAIN  61  54  77 NE12      30.00R
CENTENNIAL     MOCLDY    70  44  39 NW18G31   30.00R
BROOMFIELD     LGT RAIN  63  54  72 N22G31    29.99R
FORT COLLINS   MOCLDY    64  50  60 N21G29    29.98R THUNDER
LONGMONT       DRIZZLE   63  54  71 NE9G17    30.02R
$$

COZ041-046-047-076>085-087-088-160300-
...PIKES PEAK/PALMER DIVIDE AND SOUTHERN FOOTHILLS...

CITY           SKY/WX    TMP DP  RH WIND       PRES   REMARKS
COLO. SPRINGS  MOCLDY    68  49  50 NE17      29.99R
A. F. ACADEMY  MOCLDY    69  47  46 N7G18     30.01R
SCHRIEVER AFB  MOCLDY    64  46  52 N13G25    29.99R
CHEYENNE MTN   MOCLDY    67  47  49 NE8       30.01R
ELLICOTT       FAIR     N/A N/A N/A E15       29.98R
FALCON         MOCLDY    63  45  51 NE10      30.04S
FORT CARSON    CLOUDY    69  49  49 NE14G23   29.96R
LIMON          LGT RAIN  62  57  83 SE18      29.92S
MONUMENT HILL  FAIR      59  50  72 SE10      30.06R
CANON CITY     CLEAR     75  43  31 W8        29.88R
WALSENBURG     FAIR      73  34  23 SW8G17    29.94R
TRINIDAD       FAIR      67  53  61 E7        29.94R
$$

COZ042>045-048>051-090-091-160300-
...NORTHEAST COLORADO...

CITY           SKY/WX    TMP DP  RH WIND       PRES   REMARKS
GREELEY ARPT   LGT RAIN  60  55  83 N23G32    29.94R
AKRON          NOT AVBL
BURLINGTON     NOT AVBL
WRAY           NOT AVBL
YUMA           FAIR      72  54  53 SW5       29.82R
STERLING       FAIR      64  54  68 N13G28    29.84S
HOLYOKE        FAIR      75  64  69 SW6       29.80R
FORT MORGAN    TSTM      60  57  88 N15G22    29.92R
$$

COZ086-089-092>099-160300-
...SOUTHEAST COLORADO...

CITY           SKY/WX    TMP DP  RH WIND       PRES   REMARKS
PUEBLO         FAIR      77  50  38 E13       29.82R
LA JUNTA       NOT AVBL
LAMAR          NOT AVBL
SPRINGFIELD      N/A     69  59  70 W13G22    29.86R
$$




USA.gov is the U.S. government's official web portal to all federal, state and local government web resources and services.